QPF
0.00 0.00 0.00 0.00 0.00 0.00 0.00 0.00 0.00 0.00 0.00 0.00 0.00 0.00 0.00 0.00 0.00 0.00 0.00 0.00 0.00 0.00 0.00 0.00 0.00 0.00 0.00 0.00 0.00 0.00 0.00 0.00 0.00 0.00 0.00 0.00 0.00 0.00 0.00 0.00 0.00 0.00 0.00 0.01
0.00 0.00 0.00 0.00 0.00 0.00 0.00 0.00 0.00 0.00 0.00 0.00 0.00 0.00 0.00 0.00 0.00 0.00 0.00 0.00 0.00 0.00 0.00 0.00 0.00 0.00 0.00 0.00 0.00 0.00 0.00 0.00 0.00 0.00 0.00 0.00 0.00 0.00 0.00 0.00 0.00 0.00 0.00 0.00
0.00 0.00 0.00 0.00 0.00 0.00 0.00 0.00 0.00 0.00 0.00 0.00 0.00 0.00 0.00 0.00 0.00 0.00 0.00 0.00 0.00 0.00 0.00 0.00 0.00 0.00 0.00 0.00 0.00 0.00 0.00 0.00 0.00 0.00 0.00 0.00 0.00 0.00 0.00 0.00 0.00 0.00 0.00 0.00
0.00 0.00 0.00 0.00 0.00 0.00 0.00 0.00 0.00 0.00 0.00 0.00 0.00 0.00 0.00 0.00 0.00 0.00 0.00 0.00 0.00 0.00 0.00 0.00 0.00 0.00 0.00 0.00 0.00 0.00 0.00 0.00 0.00 0.00 0.00 0.00 0.00 0.00 0.00 0.00 0.00 0.00 0.00 0.00
0.00 0.00 0.00 0.00 0.00 0.00 0.00 0.00 0.00 0.00 0.00 0.00 0.00 0.00 0.00 0.00 0.00 0.00 0.00 0.00 0.00 0.00 0.00 0.00 0.00 0.00 0.00 0.00 0.00 0.00 0.00 0.00 0.00 0.00 0.00 0.00 0.00 0.00 0.00 0.00 0.00 0.00 0.00 0.00
0.00 0.00 0.00 0.00 0.00 0.00 0.00 0.00 0.00 0.00 0.00 0.00 0.00 0.00 0.00 0.00 0.00 0.00 0.00 0.00 0.00 0.00 0.00 0.00 0.00 0.00 0.00 0.00 0.00 0.00 0.00 0.00 0.00 0.00 0.00 0.00 0.00 0.00 0.00 0.00 0.00 0.00 0.00 0.00
0.00 0.00 0.00 0.00 0.00 0.00 0.00 0.00 0.00 0.00 0.00 0.00 0.00 0.00 0.00 0.00 0.00 0.00 0.00 0.00 0.00 0.00 0.00 0.00 0.00 0.00 0.00 0.00 0.00 0.00 0.00 0.00 0.00 0.00 0.00 0.00 0.00 0.00 0.00 0.00 0.00 0.00 0.00 0.00
0.00 0.00 0.00 0.00 0.00 0.00 0.00 0.00 0.00 0.00 0.00 0.00 0.00 0.00 0.00 0.00 0.00 0.00 0.00 0.00 0.00 0.00 0.00 0.00 0.00 0.00 0.00 0.00 0.00 0.00 0.00 0.00 0.00 0.00 0.00 0.00 0.00 0.00 0.00 0.00 0.00 0.00 0.00 0.00
0.00 0.00 0.00 0.00 0.00 0.00 0.00 0.00 0.00 0.00 0.00 0.00 0.00 0.00 0.00 0.00 0.00 0.00 0.00 0.00 0.00 0.00 0.00 0.00 0.00 0.00 0.00 0.00 0.00 0.00 0.00 0.00 0.00 0.00 0.00 0.00 0.00 0.00 0.00 0.00 0.00 0.00 0.00 0.00
0.00 0.00 0.00 0.00 0.00 0.00 0.00 0.00 0.00 0.00 0.00 0.00 0.00 0.00 0.00 0.00 0.00 0.00 0.00 0.00 0.00 0.00 0.00 0.00 0.00 0.00 0.00 0.00 0.00 0.00 0.00 0.00 0.00 0.00 0.00 0.00 0.00 0.00 0.00 0.00 0.00 0.00 0.00 0.00
0.00 0.00 0.00 0.00 0.00 0.00 0.00 0.00 0.00 0.00 0.00 0.00 0.00 0.00 0.00 0.00 0.00 0.00 0.00 0.00 0.00 0.00 0.00 0.00 0.00 0.00 0.00 0.00 0.00 0.00 0.00 0.00 0.00 0.00 0.00 0.00 0.00 0.00 0.00 0.00 0.00 0.00 0.00 0.00
0.00 0.00 0.00 0.00 0.00 0.00 0.00 0.00 0.00 0.00 0.00 0.00 0.00 0.00 0.00 0.00 0.00 0.00 0.00 0.00 0.00 0.00 0.00 0.00 0.00 0.00 0.00 0.00 0.00 0.00 0.00 0.00 0.00 0.00 0.00 0.00 0.00 0.00 0.00 0.00 0.00 0.00 0.00 0.00
0.00 0.01 0.01 0.01 0.00 0.00 0.00 0.00 0.00 0.00 0.00 0.00 0.00 0.00 0.00 0.00 0.00 0.00 0.00 0.00 0.00 0.00 0.00 0.00 0.00 0.00 0.00 0.00 0.00 0.00 0.00 0.00 0.00 0.00 0.00 0.00 0.00 0.00 0.00 0.00 0.00 0.00 0.00 0.00
0.01 0.02 0.01 0.01 0.01 0.01 0.00 0.00 0.00 0.00 0.00 0.00 0.00 0.00 0.00 0.00 0.00 0.00 0.00 0.00 0.00 0.00 0.00 0.00 0.00 0.00 0.00 0.00 0.00 0.00 0.00 0.00 0.00 0.00 0.00 0.00 0.00 0.00 0.00 0.00 0.00 0.00 0.00 0.00
0.03 0.04 0.02 0.01 0.01 0.02 0.02 0.01 0.01 0.01 0.01 0.00 0.00 0.00 0.00 0.00 0.00 0.00 0.00 0.00 0.00 0.00 0.00 0.00 0.00 0.00 0.00 0.00 0.00 0.00 0.00 0.00 0.00 0.00 0.00 0.00 0.00 0.00 0.00 0.00 0.00 0.00 0.00 0.00
0.05 0.05 0.04 0.03 0.02 0.03 0.03 0.01 0.00 0.00 0.00 0.00 0.00 0.00 0.00 0.00 0.00 0.00 0.00 0.00 0.00 0.00 0.00 0.00 0.00 0.00 0.00 0.00 0.00 0.00 0.00 0.00 0.00 0.00 0.00 0.00 0.00 0.00 0.00 0.00 0.00 0.00 0.00 0.00
0.08 0.07 0.07 0.06 0.04 0.05 0.04 0.01 0.00 0.00 0.00 0.00 0.00 0.00 0.00 0.00 0.00 0.00 0.00 0.00 0.00 0.00 0.00 0.00 0.00 0.00 0.00 0.00 0.00 0.00 0.00 0.00 0.00 0.00 0.00 0.00 0.00 0.00 0.00 0.00 0.00 0.00 0.00 0.00
0.09 0.09 0.10 0.08 0.05 0.06 0.01 0.00 0.00 0.00 0.00 0.00 0.00 0.00 0.00 0.00 0.00 0.00 0.00 0.00 0.00 0.00 0.00 0.00 0.00 0.00 0.00 0.00 0.00 0.00 0.00 0.00 0.00 0.00 0.00 0.00 0.00 0.00 0.00 0.00 0.00 0.00 0.00 0.00
0.04 0.06 0.09 0.07 0.04 0.01 0.00 0.00 0.00 0.00 0.00 0.00 0.00 0.00 0.00 0.00 0.00 0.00 0.00 0.00 0.00 0.00 0.00 0.00 0.00 0.00 0.00 0.00 0.00 0.00 0.00 0.00 0.00 0.00 0.00 0.00 0.00 0.00 0.00 0.00 0.00 0.00 0.00 0.00
0.02 0.03 0.05 0.05 0.03 0.01 0.00 0.00 0.00 0.00 0.00 0.00 0.00 0.00 0.00 0.00 0.00 0.00 0.00 0.00 0.00 0.00 0.00 0.00 0.00 0.00 0.00 0.00 0.00 0.00 0.00 0.00 0.00 0.00 0.00 0.00 0.00 0.00 0.00 0.00 0.00 0.00 0.00 0.00
0.02 0.03 0.04 0.03 0.02 0.01 0.00 0.00 0.00 0.00 0.00 0.00 0.00 0.00 0.00 0.00 0.00 0.00 0.00 0.00 0.00 0.00 0.00 0.00 0.00 0.00 0.00 0.00 0.00 0.00 0.00 0.00 0.00 0.00 0.00 0.00 0.00 0.00 0.00 0.00 0.00 0.00 0.00 0.00
0.01 0.01 0.01 0.01 0.02 0.01 0.00 0.00 0.00 0.00 0.00 0.00 0.00 0.00 0.00 0.00 0.00 0.00 0.00 0.00 0.00 0.00 0.00 0.00 0.00 0.00 0.00 0.00 0.00 0.00 0.00 0.00 0.00 0.00 0.00 0.00 0.00 0.00 0.00 0.00 0.00 0.00 0.00 0.00
0.00 0.00 0.00 0.00 0.00 0.00 0.00 0.00 0.00 0.00 0.00 0.00 0.00 0.00 0.00 0.00 0.00 0.00 0.00 0.00 0.00 0.00 0.00 0.00 0.00 0.00 0.00 0.00 0.00 0.00 0.00 0.00 0.00 0.00 0.00 0.00 0.00 0.00 0.00 0.00 0.00 0.00 0.00 0.00
0.00 0.00 0.00 0.00 0.00 0.00 0.00 0.00 0.00 0.00 0.00 0.00 0.00 0.00 0.00 0.00 0.00 0.00 0.00 0.00 0.00 0.00 0.00 0.00 0.00 0.00 0.00 0.00 0.00 0.00 0.00 0.00 0.00 0.00 0.00 0.00 0.00 0.00 0.00 0.01 0.01 0.01 0.01 0.01
0.00 0.00 0.00 0.00 0.00 0.00 0.00 0.00 0.00 0.00 0.00 0.00 0.00 0.00 0.00 0.00 0.00 0.00 0.00 0.00 0.00 0.00 0.00 0.00 0.00 0.00 0.00 0.00 0.00 0.00 0.00 0.01 0.01 0.01 0.01 0.01 0.01 0.01 0.02 0.02 0.02 0.02 0.02 0.02
0.00 0.00 0.00 0.00 0.00 0.00 0.00 0.00 0.00 0.00 0.00 0.00 0.00 0.00 0.00 0.00 0.00 0.00 0.00 0.00 0.00 0.00 0.00 0.00 0.00 0.00 0.00 0.00 0.00 0.01 0.01 0.02 0.02 0.02 0.02 0.03 0.03 0.03 0.04 0.04 0.05 0.06 0.06 0.06
MSLP
1016.96 1017.49 1017.96 1018.36 1018.72 1019.04 1019.33 1019.60 1019.83 1020.01 1020.11 1020.11 1019.99 1019.73 1019.36 1018.89 1018.36 1017.81 1017.27 1016.78 1016.36 1016.03 1015.78 1015.61 1015.50 1015.45 1015.46 1015.52 1015.66 1015.88 1016.18 1016.58 1017.06 1017.59 1018.15 1018.70 1019.21 1019.65 1020.03 1020.36 1020.64 1020.93 1021.25 1021.64
1017.36 1017.78 1018.12 1018.42 1018.69 1018.96 1019.25 1019.55 1019.84 1020.08 1020.23 1020.26 1020.12 1019.81 1019.34 1018.74 1018.07 1017.39 1016.74 1016.17 1015.71 1015.35 1015.10 1014.94 1014.83 1014.77 1014.75 1014.79 1014.89 1015.08 1015.39 1015.80 1016.32 1016.92 1017.55 1018.18 1018.75 1019.24 1019.63 1019.93 1020.17 1020.40 1020.66 1020.99
1017.64 1017.94 1018.18 1018.39 1018.60 1018.85 1019.16 1019.51 1019.86 1020.16 1020.35 1020.38 1020.20 1019.81 1019.22 1018.49 1017.68 1016.88 1016.14 1015.51 1015.03 1014.69 1014.47 1014.34 1014.26 1014.22 1014.20 1014.22 1014.29 1014.46 1014.74 1015.16 1015.70 1016.33 1017.01 1017.69 1018.31 1018.83 1019.24 1019.54 1019.76 1019.94 1020.14 1020.41
1017.76 1017.97 1018.13 1018.29 1018.50 1018.78 1019.14 1019.56 1019.99 1020.35 1020.57 1020.57 1020.33 1019.84 1019.13 1018.25 1017.31 1016.39 1015.57 1014.91 1014.43 1014.13 1013.96 1013.90 1013.88 1013.87 1013.87 1013.88 1013.93 1014.06 1014.31 1014.70 1015.21 1015.84 1016.53 1017.23 1017.88 1018.42 1018.84 1019.14 1019.35 1019.50 1019.66 1019.88
1017.69 1017.84 1017.98 1018.15 1018.40 1018.76 1019.22 1019.75 1020.27 1020.69 1020.93 1020.91 1020.60 1019.99 1019.14 1018.12 1017.05 1016.03 1015.15 1014.46 1014.00 1013.75 1013.66 1013.67 1013.72 1013.77 1013.79 1013.80 1013.83 1013.92 1014.11 1014.43 1014.90 1015.48 1016.13 1016.81 1017.44 1017.99 1018.41 1018.71 1018.92 1019.06 1019.20 1019.37
1017.44 1017.56 1017.71 1017.93 1018.28 1018.76 1019.36 1020.02 1020.65 1021.14 1021.40 1021.35 1020.97 1020.25 1019.28 1018.13 1016.94 1015.83 1014.90 1014.21 1013.77 1013.58 1013.56 1013.65 1013.78 1013.89 1013.95 1013.97 1013.97 1014.00 1014.13 1014.37 1014.74 1015.24 1015.82 1016.43 1017.02 1017.54 1017.95 1018.24 1018.45 1018.60 1018.73 1018.88
1017.02 1017.13 1017.32 1017.63 1018.10 1018.74 1019.49 1020.29 1021.03 1021.59 1021.86 1021.79 1021.34 1020.54 1019.46 1018.21 1016.95 1015.78 1014.83 1014.14 1013.74 1013.60 1013.66 1013.83 1014.02 1014.19 1014.28 1014.30 1014.28 1014.27 1014.32 1014.47 1014.73 1015.12 1015.59 1016.11 1016.63 1017.09 1017.47 1017.75 1017.96 1018.11 1018.25 1018.40
1016.48 1016.59 1016.83 1017.24 1017.84 1018.61 1019.50 1020.42 1021.24 1021.85 1022.14 1022.05 1021.56 1020.70 1019.56 1018.27 1016.97 1015.80 1014.86 1014.20 1013.85 1013.77 1013.89 1014.12 1014.37 1014.57 1014.69 1014.72 1014.69 1014.64 1014.62 1014.67 1014.84 1015.10 1015.46 1015.87 1016.29 1016.68 1017.00 1017.26 1017.46 1017.61 1017.75 1017.91
1015.88 1015.99 1016.28 1016.76 1017.46 1018.33 1019.32 1020.30 1021.16 1021.78 1022.07 1021.96 1021.44 1020.57 1019.44 1018.17 1016.91 1015.79 1014.91 1014.32 1014.03 1014.01 1014.18 1014.45 1014.74 1014.97 1015.11 1015.14 1015.10 1015.02 1014.95 1014.93 1015.00 1015.16 1015.41 1015.71 1016.02 1016.32 1016.58 1016.79 1016.96 1017.11 1017.25 1017.41
1015.31 1015.43 1015.74 1016.26 1017.00 1017.91 1018.90 1019.88 1020.71 1021.29 1021.53 1021.40 1020.88 1020.04 1018.98 1017.80 1016.66 1015.67 1014.91 1014.43 1014.23 1014.27 1014.48 1014.78 1015.08 1015.32 1015.46 1015.49 1015.44 1015.35 1015.25 1015.19 1015.19 1015.27 1015.42 1015.61 1015.82 1016.03 1016.21 1016.36 1016.49 1016.61 1016.73 1016.89
1014.88 1014.99 1015.30 1015.82 1016.53 1017.38 1018.29 1019.17 1019.89 1020.36 1020.53 1020.36 1019.86 1019.10 1018.16 1017.15 1016.20 1015.41 1014.83 1014.50 1014.42 1014.53 1014.78 1015.08 1015.38 1015.60 1015.73 1015.76 1015.70 1015.60 1015.50 1015.42 1015.38 1015.40 1015.48 1015.58 1015.69 1015.80 1015.90 1015.97 1016.04 1016.11 1016.20 1016.33
1014.64 1014.76 1015.05 1015.52 1016.14 1016.86 1017.61 1018.29 1018.83 1019.14 1019.20 1018.97 1018.50 1017.85 1017.09 1016.31 1015.62 1015.07 1014.73 1014.59 1014.63 1014.83 1015.10 1015.40 1015.66 1015.85 1015.95 1015.96 1015.90 1015.81 1015.70 1015.62 1015.56 1015.55 1015.56 1015.58 1015.61 1015.63 1015.63 1015.62 1015.61 1015.62 1015.67 1015.75
1014.64 1014.77 1015.04 1015.43 1015.92 1016.45 1016.97 1017.41 1017.71 1017.82 1017.73 1017.46 1017.03 1016.50 1015.95 1015.44 1015.04 1014.78 1014.69 1014.75 1014.94 1015.20 1015.50 1015.78 1016.00 1016.14 1016.19 1016.17 1016.10 1016.01 1015.90 1015.82 1015.75 1015.70 1015.67 1015.62 1015.56 1015.49 1015.39 1015.29 1015.20 1015.14 1015.12 1015.16
1014.87 1015.04 1015.28 1015.59 1015.92 1016.24 1016.51 1016.67 1016.71 1016.61 1016.38 1016.05 1015.67 1015.29 1014.96 1014.72 1014.62 1014.65 1014.81 1015.07 1015.39 1015.73 1016.03 1016.28 1016.44 1016.52 1016.52 1016.46 1016.36 1016.26 1016.16 1016.06 1015.98 1015.90 1015.80 1015.69 1015.54 1015.37 1015.18 1014.99 1014.81 1014.68 1014.60 1014.58
1015.28 1015.49 1015.72 1015.95 1016.13 1016.24 1016.26 1016.17 1015.97 1015.68 1015.33 1014.98 1014.66 1014.42 1014.31 1014.33 1014.50 1014.80 1015.18 1015.60 1016.03 1016.41 1016.71 1016.91 1017.00 1017.01 1016.96 1016.85 1016.73 1016.61 1016.49 1016.38 1016.27 1016.14 1015.99 1015.79 1015.55 1015.28 1014.99 1014.71 1014.45 1014.25 1014.11 1014.05
1015.77 1016.04 1016.26 1016.41 1016.47 1016.41 1016.23 1015.93 1015.55 1015.12 1014.70 1014.35 1014.10 1014.01 1014.09 1014.35 1014.74 1015.24 1015.79 1016.33 1016.82 1017.21 1017.48 1017.63 1017.66 1017.61 1017.50 1017.36 1017.21 1017.07 1016.93 1016.80 1016.64 1016.45 1016.22 1015.93 1015.60 1015.22 1014.84 1014.47 1014.15 1013.88 1013.70 1013.60
1016.25 1016.55 1016.76 1016.86 1016.82 1016.64 1016.32 1015.89 1015.40 1014.91 1014.48 1014.17 1014.02 1014.07 1014.31 1014.73 1015.29 1015.92 1016.56 1017.16 1017.66 1018.03 1018.25 1018.35 1018.33 1018.23 1018.09 1017.93 1017.76 1017.61 1017.45 1017.28 1017.07 1016.81 1016.49 1016.10 1015.67 1015.20 1014.73 1014.29 1013.91 1013.60 1013.38 1013.26
1016.62 1016.92 1017.10 1017.14 1017.04 1016.78 1016.39 1015.92 1015.41 1014.94 1014.56 1014.34 1014.31 1014.48 1014.85 1015.38 1016.02 1016.70 1017.36 1017.94 1018.40 1018.72 1018.90 1018.94 1018.89 1018.77 1018.63 1018.47 1018.31 1018.15 1017.98 1017.78 1017.52 1017.18 1016.77 1016.30 1015.77 1015.21 1014.67 1014.17 1013.74 1013.40 1013.17 1013.03
1016.82 1017.06 1017.18 1017.16 1017.00 1016.72 1016.33 1015.88 1015.44 1015.06 1014.80 1014.70 1014.79 1015.07 1015.52 1016.10 1016.76 1017.41 1018.02 1018.53 1018.92 1019.16 1019.28 1019.29 1019.23 1019.12 1019.01 1018.88 1018.76 1018.63 1018.45 1018.22 1017.92 1017.52 1017.03 1016.47 1015.86 1015.24 1014.64 1014.10 1013.65 1013.30 1013.05 1012.91
1016.83 1016.95 1016.97 1016.88 1016.68 1016.40 1016.05 1015.69 1015.37 1015.13 1015.03 1015.07 1015.29 1015.65 1016.15 1016.73 1017.33 1017.91 1018.42 1018.82 1019.10 1019.27 1019.34 1019.33 1019.29 1019.23 1019.17 1019.11 1019.05 1018.95 1018.79 1018.56 1018.21 1017.76 1017.21 1016.59 1015.92 1015.25 1014.62 1014.06 1013.60 1013.26 1013.02 1012.87
1016.66 1016.63 1016.53 1016.35 1016.11 1015.84 1015.57 1015.33 1015.17 1015.10 1015.16 1015.36 1015.68 1016.11 1016.62 1017.15 1017.67 1018.13 1018.51 1018.78 1018.96 1019.05 1019.08 1019.08 1019.08 1019.09 1019.11 1019.13 1019.14 1019.09 1018.96 1018.72 1018.36 1017.87 1017.28 1016.61 1015.91 1015.22 1014.58 1014.04 1013.59 1013.26 1013.03 1012.89
1016.36 1016.17 1015.93 1015.67 1015.40 1015.16 1014.98 1014.87 1014.87 1014.98 1015.20 1015.53 1015.95 1016.41 1016.90 1017.36 1017.77 1018.10 1018.34 1018.49 1018.56 1018.60 1018.61 1018.64 1018.69 1018.78 1018.89 1018.99 1019.07 1019.07 1018.96 1018.72 1018.34 1017.83 1017.21 1016.52 1015.81 1015.12 1014.51 1013.99 1013.58 1013.28 1013.08 1012.94
1016.00 1015.66 1015.30 1014.97 1014.70 1014.51 1014.42 1014.45 1014.60 1014.87 1015.24 1015.68 1016.15 1016.63 1017.07 1017.45 1017.74 1017.94 1018.04 1018.09 1018.09 1018.08 1018.09 1018.15 1018.26 1018.42 1018.61 1018.78 1018.90 1018.93 1018.83 1018.58 1018.18 1017.64 1017.00 1016.31 1015.61 1014.96 1014.39 1013.92 1013.57 1013.32 1013.14 1013.02
1015.64 1015.20 1014.78 1014.43 1014.18 1014.06 1014.08 1014.24 1014.53 1014.93 1015.41 1015.92 1016.42 1016.88 1017.27 1017.55 1017.73 1017.81 1017.82 1017.77 1017.72 1017.69 1017.71 1017.80 1017.96 1018.17 1018.40 1018.60 1018.73 1018.76 1018.63 1018.35 1017.91 1017.35 1016.70 1016.01 1015.34 1014.73 1014.22 1013.83 1013.54 1013.35 1013.23 1013.14
1015.35 1014.89 1014.48 1014.16 1013.98 1013.96 1014.10 1014.39 1014.80 1015.31 1015.86 1016.40 1016.91 1017.33 1017.65 1017.84 1017.92 1017.91 1017.83 1017.72 1017.63 1017.58 1017.61 1017.72 1017.90 1018.13 1018.36 1018.54 1018.64 1018.61 1018.43 1018.08 1017.60 1017.00 1016.34 1015.67 1015.03 1014.48 1014.04 1013.73 1013.53 1013.42 1013.36 1013.32
1015.19 1014.78 1014.46 1014.26 1014.21 1014.32 1014.60 1015.01 1015.53 1016.11 1016.70 1017.25 1017.72 1018.09 1018.33 1018.44 1018.43 1018.34 1018.20 1018.05 1017.93 1017.87 1017.89 1017.99 1018.16 1018.35 1018.53 1018.65 1018.67 1018.55 1018.27 1017.85 1017.30 1016.66 1015.98 1015.32 1014.73 1014.24 1013.89 1013.67 1013.56 1013.53 1013.55 1013.58
Thickness
5653 5644 5642 5648 5654 5657 5654 5655 5660 5668 5673 5669 5668 5673 5683 5691 5695 5698 5701 5705 5710 5717 5726 5728 5728 5728 5726 5723 5721 5719 5715 5711 5705 5699 5695 5691 5688 5684 5680 5676 5672 5666 5661 5654
5636 5637 5647 5650 5650 5651 5653 5653 5656 5660 5666 5664 5663 5666 5678 5685 5692 5700 5704 5708 5713 5718 5722 5725 5726 5726 5726 5724 5722 5719 5717 5712 5708 5704 5699 5693 5688 5683 5679 5674 5670 5666 5661 5655
5630 5640 5646 5645 5646 5643 5644 5645 5649 5652 5655 5658 5655 5658 5671 5686 5693 5700 5704 5710 5713 5716 5720 5724 5725 5725 5724 5723 5722 5721 5718 5714 5709 5704 5696 5688 5683 5678 5674 5671 5668 5664 5659 5654
5626 5638 5641 5638 5640 5640 5635 5648 5648 5647 5640 5632 5644 5632 5659 5673 5683 5696 5705 5707 5709 5714 5717 5719 5721 5722 5721 5722 5721 5719 5716 5712 5707 5700 5694 5688 5683 5680 5678 5672 5666 5661 5656 5651
5621 5630 5634 5632 5636 5638 5637 5642 5640 5638 5632 5626 5628 5627 5647 5662 5673 5687 5700 5706 5708 5710 5711 5713 5715 5717 5718 5717 5714 5712 5709 5706 5702 5696 5692 5686 5682 5678 5671 5665 5660 5655 5651 5646
5618 5626 5629 5632 5633 5633 5629 5623 5616 5608 5608 5607 5618 5617 5632 5651 5673 5687 5695 5700 5702 5703 5704 5705 5707 5709 5708 5706 5705 5702 5700 5697 5694 5690 5685 5681 5677 5671 5664 5659 5654 5649 5645 5641
5604 5612 5619 5624 5618 5619 5619 5606 5592 5595 5588 5595 5610 5614 5631 5658 5670 5678 5685 5689 5691 5692 5692 5693 5696 5697 5697 5696 5693 5692 5690 5687 5684 5680 5677 5674 5670 5665 5660 5655 5650 5644 5639 5636
5585 5590 5605 5612 5613 5607 5606 5606 5587 5580 5580 5587 5601 5603 5633 5655 5664 5671 5675 5678 5679 5680 5680 5682 5684 5684 5683 5684 5682 5679 5678 5676 5673 5670 5667 5664 5661 5657 5654 5650 5645 5640 5637 5632
5586 5587 5599 5602 5608 5606 5595 5593 5596 5579 5569 5576 5590 5607 5628 5650 5659 5663 5664 5664 5665 5666 5668 5670 5671 5672 5671 5670 5669 5667 5666 5664 5661 5659 5656 5653 5650 5647 5645 5641 5637 5633 5630 5625
5584 5575 5582 5587 5593 5595 5596 5588 5573 5570 5565 5569 5588 5599 5615 5640 5647 5649 5648 5649 5652 5653 5654 5656 5656 5657 5656 5656 5655 5654 5653 5651 5650 5647 5645 5643 5640 5637 5634 5631 5628 5625 5621 5616
5577 5569 5563 5568 5575 5579 5579 5579 5579 5568 5564 5563 5568 5595 5619 5628 5633 5632 5631 5633 5635 5638 5639 5639 5640 5640 5640 5640 5640 5639 5638 5637 5636 5635 5633 5631 5629 5626 5623 5621 5619 5616 5612 5607
5568 5560 5549 5557 5568 5574 5579 5579 5574 5563 5557 5561 5570 5593 5618 5618 5618 5617 5617 5619 5620 5621 5621 5621 5621 5622 5622 5623 5623 5623 5623 5623 5623 5622 5620 5618 5616 5614 5612 5611 5609 5605 5601 5597
5559 5549 5537 5541 5550 5556 5561 5567 5570 5568 5557 5546 5558 5585 5603 5602 5602 5603 5604 5604 5603 5604 5603 5602 5601 5602 5603 5604 5605 5606 5607 5607 5607 5607 5606 5605 5603 5602 5601 5600 5597 5594 5591 5587
5551 5541 5542 5545 5551 5551 5548 5554 5558 5556 5549 5553 5569 5586 5590 5589 5589 5590 5590 5589 5587 5585 5584 5584 5583 5583 5584 5585 5586 5587 5589 5590 5590 5590 5590 5590 5590 5590 5589 5587 5585 5582 5579 5576
5535 5529 5531 5534 5536 5538 5541 5543 5545 5549 5555 5555 5570 5574 5582 5578 5577 5576 5575 5573 5569 5567 5566 5566 5566 5566 5567 5568 5569 5570 5571 5572 5572 5573 5573 5575 5576 5575 5574 5573 5572 5570 5568 5565
5519 5514 5513 5514 5518 5519 5522 5528 5532 5537 5543 5546 5552 5564 5574 5567 5565 5560 5556 5553 5550 5550 5549 5549 5549 5549 5549 5550 5551 5553 5553 5553 5553 5555 5556 5558 5558 5558 5558 5557 5557 5556 5554 5553
5500 5498 5498 5498 5497 5499 5506 5522 5522 5526 5533 5537 5543 5559 5554 5550 5546 5541 5535 5534 5531 5531 5530 5530 5530 5530 5530 5530 5531 5532 5533 5534 5534 5535 5537 5538 5539 5541 5542 5541 5541 5540 5540 5538
5486 5480 5478 5474 5476 5486 5519 5522 5522 5523 5528 5532 5539 5540 5534 5531 5525 5517 5515 5514 5513 5514 5513 5513 5512 5512 5512 5511 5512 5512 5512 5514 5515 5517 5519 5520 5521 5523 5524 5524 5525 5524 5523 5522
5475 5469 5459 5455 5457 5464 5489 5503 5507 5507 5512 5516 5521 5518 5513 5508 5504 5496 5496 5496 5496 5496 5496 5494 5494 5494 5493 5493 5494 5493 5495 5496 5497 5499 5500 5501 5501 5503 5505 5506 5506 5506 5505 5504
5457 5458 5447 5436 5437 5441 5486 5497 5498 5498 5490 5498 5497 5495 5492 5493 5486 5485 5482 5479 5479 5479 5477 5477 5476 5475 5475 5475 5474 5475 5477 5477 5479 5480 5481 5482 5481 5483 5485 5486 5487 5486 5485 5485
5440 5440 5439 5428 5427 5438 5473 5475 5478 5470 5482 5476 5475 5474 5473 5471 5469 5468 5466 5464 5462 5461 5460 5459 5458 5457 5456 5455 5455 5456 5457 5458 5459 5459 5461 5462 5462 5463 5464 5466 5466 5465 5464 5463
5434 5429 5427 5421 5420 5441 5468 5457 5459 5460 5454 5454 5454 5454 5454 5454 5453 5450 5449 5447 5445 5444 5443 5442 5440 5440 5439 5437 5436 5438 5438 5438 5437 5438 5440 5441 5443 5443 5443 5443 5444 5442 5441 5440
5420 5430 5425 5428 5437 5445 5446 5445 5441 5437 5434 5434 5434 5435 5435 5435 5434 5433 5433 5431 5429 5427 5426 5424 5422 5423 5422 5418 5416 5415 5418 5416 5415 5416 5418 5420 5421 5421 5421 5420 5420 5419 5417 5415
5401 5409 5406 5406 5415 5421 5423 5422 5420 5418 5418 5418 5417 5417 5417 5416 5417 5416 5415 5415 5413 5410 5407 5405 5403 5403 5403 5400 5396 5393 5393 5392 5392 5393 5396 5397 5398 5399 5398 5396 5396 5394 5393 5391
5389 5389 5389 5391 5398 5398 5399 5399 5399 5399 5398 5397 5396 5396 5395 5395 5396 5396 5396 5396 5393 5392 5388 5384 5382 5381 5381 5377 5374 5370 5368 5367 5368 5371 5373 5375 5375 5375 5374 5373 5372 5371 5371 5369
5375 5379 5379 5377 5383 5381 5381 5379 5379 5377 5376 5374 5374 5374 5373 5372 5372 5372 5372 5372 5370 5368 5365 5361 5358 5356 5355 5352 5351 5347 5343 5342 5343 5348 5351 5352 5353 5353 5352 5351 5350 5350 5349 5349